TimePST,TemperatureF,Dew PointF,Humidity,Sea Level PressureIn,VisibilityMPH,Wind Direction,Wind SpeedMPH,Gust SpeedMPH,PrecipitationIn,Events,Conditions,WindDirDegrees,DateUTC
12:50 AM,28.2,28.2,100,30.09,1.0,SSW,2.3,-,N/A,,Mist,200,2013-01-07 08:50:00
1:50 AM,28.6,28.2,99,30.09,3.0,NE,2.3,-,0.00,Snow,Light Snow,40,2013-01-07 09:50:00
2:50 AM,28.6,28.2,99,30.08,1.0,NW,3.5,-,0.01,Snow,Light Snow,310,2013-01-07 10:50:00
3:50 AM,28.8,28.4,99,30.05,1.0,North,2.3,-,0.04,Snow,Light Snow,360,2013-01-07 11:50:00
4:50 AM,28.6,28.2,99,30.01,2.0,NNW,2.3,-,0.02,Snow,Light Snow,330,2013-01-07 12:50:00
5:50 AM,28.4,28.2,99,30.01,2.0,NW,3.5,-,0.00,,Overcast,310,2013-01-07 13:50:00
6:50 AM,28.4,28.4,100,29.97,0.8,NW,2.3,-,N/A,,Mist,320,2013-01-07 14:50:00
7:50 AM,29.1,29.1,100,29.95,0.8,NW,4.6,-,0.01,Rain,Light Freezing Rain,320,2013-01-07 15:50:00
8:50 AM,29.1,28.8,99,29.95,2.0,NW,3.5,-,0.01,,Overcast,310,2013-01-07 16:50:00
9:50 AM,29.7,29.1,98,29.95,4.0,West,4.6,-,N/A,,Overcast,280,2013-01-07 17:50:00
10:50 AM,30.7,29.3,94,29.93,6.0,NNW,3.5,-,N/A,,Overcast,340,2013-01-07 18:50:00
11:50 AM,31.6,29.3,91,29.92,8.0,North,3.5,-,N/A,,Overcast,360,2013-01-07 19:50:00
12:50 PM,32.5,30.2,91,29.91,8.0,NNE,4.6,-,N/A,,Overcast,20,2013-01-07 20:50:00
1:50 PM,34.0,30.6,87,29.89,8.0,South,2.3,-,N/A,,Overcast,190,2013-01-07 21:50:00
2:50 PM,32.2,30.6,94,29.91,4.0,NNE,6.9,-,N/A,,Overcast,20,2013-01-07 22:50:00
3:50 PM,29.7,29.7,100,29.92,0.1,NNE,3.5,-,N/A,Fog,Light Freezing Fog,30,2013-01-07 23:50:00
4:50 PM,28.6,28.6,100,29.92,0.1,WSW,2.3,-,N/A,Fog,Light Freezing Fog,240,2013-01-08 00:50:00
5:50 PM,27.0,27.0,100,29.94,0.1,SW,5.8,-,N/A,Fog,Light Freezing Fog,230,2013-01-08 01:50:00
6:50 PM,27.7,27.7,100,29.95,0.1,North,3.5,-,N/A,Fog,Light Freezing Fog,350,2013-01-08 02:50:00
10:50 PM,35.1,31.6,87,30.05,15.0,SW,8.1,-,N/A,,Mostly Cloudy,230,2013-01-08 06:50:00
11:50 PM,33.6,30.6,89,30.08,15.0,West,6.9,-,N/A,,Scattered Clouds,270,2013-01-08 07:50:00